Regional Weather Roundup
Issued by NWS

Home | Current Version | Previous Version | Text Only | Print | Product List | Glossary On
Versions: 1 2 3 4 5 6 7 8 9 10 11 12 13 14 15 16 17 18 19 20 21 22 23 24 25 26 27 28 29 30 31 32 33 34 35 36 37 38 39 40 41 42 43 44 45 46 47 48 49 50
000
ASUS43 KLMK 220810
RWRKY
KENTUCKY REGIONAL WEATHER ROUNDUP
NATIONAL WEATHER SERVICE LOUISVILLE KY
300 AM EST WED FEB 22 2017

NOTE "FAIR" INDICATES FEW OR NO CLOUDS BELOW 12,000 FEET
WITH NO SIGNIFICANT WEATHER AND/OR OBSTRUCTIONS TO VISIBILITY.

KYZ001>023-026-027-061>063-070>075-220900-
WESTERN AND SOUTH CENTRAL KENTUCKY

CITY           SKY/WX    TMP DP  RH WIND       PRES   REMARKS
PADUCAH        CLOUDY    57  55  93 E3        29.88F FOG
HENDERSON      CLOUDY    55  52  88 CALM      29.88S
OWENSBORO      CLOUDY    58  56  93 S8        29.90S
HOPKINSVILLE   MOCLDY    58  58 100 SE5       29.88F
BOWLING GREEN  CLOUDY    56  54  93 SE6       29.91F
GLASGOW        DRIZZLE  N/A N/A N/A SE3       29.92F
$$

KYZ024-025-028>034-038-045-046-053-220900-
NORTH CENTRAL KENTUCKY

CITY           SKY/WX    TMP DP  RH WIND       PRES   REMARKS
LOUISVILLE/SDF CLOUDY    59  54  83 S6        29.92F
LOUISVILLE/LOU CLOUDY    59  54  83 S3        29.92S
FORT KNOX      CLOUDY    56  56 100 S7        29.89F
$$

KYZ035>037-039>044-047>052-055>060-089>105-220900-
NORTHEAST KENTUCKY

CITY           SKY/WX    TMP DP  RH WIND       PRES   REMARKS
LEXINGTON      CLOUDY    56  54  93 CALM      29.95F
COVINGTON      CLOUDY    56  55  97 S7        29.92F FOG
FRANKFORT      CLOUDY    57  54  89 S10       29.92F
$$

KYZ054-064>069-076>088-106>120-220900-
SOUTHEAST KENTUCKY

CITY           SKY/WX    TMP DP  RH WIND       PRES   REMARKS
JACKSON        LGT RAIN  55  52  89 CALM      29.97F
LONDON         LGT RAIN  55  52  89 CALM      29.96F FOG
SOMERSET       RAIN      54  54 100 CALM      29.96F
MIDDLESBORO    LGT RAIN  55  53  94 CALM      29.96F
MONTICELLO     LGT RAIN  55  54  96 NW7       29.96F
$$





USA.gov is the U.S. government's official web portal to all federal, state and local government web resources and services.